Location: Unspecified
(48.2082°N, 0.0000°E)
Time: 02:17:52
(UTC+00:00)

A-11 Canister half - Pass Details

Date: 27 June 2019
Orbit: 1515 x 1685 km, 47.2° (Epoch: 15 July)

Event Time Altitude Azimuth Distance (km) Brightness Sun altitude
Rises 15:46:54 0° 290° (WNW) 4,818 12.3 39.6°
Reaches altitude 10° 15:50:22 10° 283° (WNW) 3,804 12.1 39.1°
Maximum altitude 15:58:42 35° 222° (SW) 2,312 11.1 37.7°
Drops below altitude 10° 16:06:49 10° 161° (SSE) 3,689 11.0 36.3°
Sets 16:10:09 0° 153° (SSE) 4,656 11.3 35.8°
